• Processing (Info)

  • MPEC 2005-S16 : 2005 SC

    The following Minor Planet Electronic Circular may be linked-to from your own Web pages, but must not otherwise be redistributed electronically.

    A form allowing access to any MPEC is at the bottom of this page.


    Read MPEC 2005-S15 Read MPEC 2005-S17


    M.P.E.C. 2005-S16                                Issued 2005 Sept. 19, 15:01 UT
    
         The Minor Planet Electronic Circulars contain information on unusual
             minor planets and routine data on comets.  They are published
       on behalf of Commission 20 of the International Astronomical Union by the
              Minor Planet Center, Smithsonian Astrophysical Observatory,
                              Cambridge, MA 02138, U.S.A.
    
                      Supported in part by the Brinson Foundation
                 Prepared using the Tamkin Foundation Computer Network
    
                                  MPC@CFA.HARVARD.EDU
              URL http://cfa-www.harvard.edu/iau/mpc.html  ISSN 1523-6714
    
                                        2005 SC
    
    Observations:
         K05S00C* C2005 09 16.29895 00 02 24.27 +46 04 14.9          18.1   ES016704
         K05S00C  C2005 09 16.31139 00 02 25.19 +46 05 55.5          18.9   ES016704
         K05S00C  C2005 09 16.32384 00 02 25.80 +46 07 37.5          18.3   ES016704
         K05S00C  C2005 09 16.33627 00 02 26.48 +46 09 18.3          18.7   ES016704
         K05S00C  C2005 09 16.34872 00 02 27.30 +46 10 58.2          19.0   ES016704
         K05S00C  C2005 09 17.06407 00 03 29.41 +47 50 13.6                 ES016J95
         K05S00C  C2005 09 17.06633 00 03 29.60 +47 50 32.8                 ES016J95
         K05S00C  C2005 09 17.06922 00 03 29.78 +47 50 57.6          18.2 R ES016J95
         K05S00C  C2005 09 17.10168 00 03 32.52 +47 55 33.6                 ES016J71
         K05S00C  C2005 09 17.10547 00 03 32.65 +47 56 06.0                 ES016J71
         K05S00C  C2005 09 17.10995 00 03 32.94 +47 56 43.0                 ES016J71
         K05S00C 5C2005 09 17.20266 00 03 46.17 +48 10 10.9          17.8 R ES016673
         K05S00C 5C2005 09 17.21053 00 03 46.79 +48 11 20.7                 ES016673
         K05S00C 5C2005 09 17.21678 00 03 47.28 +48 12 15.8                 ES016673
         K05S00C 5C2005 09 17.22245 00 03 47.69 +48 13 06.0                 ES016673
         K05S00C  C2005 09 17.25927 00 03 50.09 +48 18 31.8          18.1 R ES016854
         K05S00C  C2005 09 17.26306 00 03 50.36 +48 19 04.6          18.2 R ES016854
         K05S00C  C2005 09 17.27918 00 03 51.46 +48 21 26.1          18.3 R ES016854
         K05S00C  C2005 09 18.88457 00 06 48.75 +52 27 47.4          17.8 R ES016118
         K05S00C  C2005 09 18.88538 00 06 48.84 +52 27 55.3          17.5 R ES016118
         K05S00C  C2005 09 18.88619 00 06 48.89 +52 28 03.6          17.5 R ES016118
         K05S00C  C2005 09 18.88700 00 06 48.96 +52 28 11.7          17.8 R ES016118
         K05S00C  C2005 09 18.88782 00 06 49.05 +52 28 19.1          17.4 R ES016118
         K05S00C  C2005 09 19.01214 00 07 07.51 +52 48 24.9          18.0 R ES016932
         K05S00C  C2005 09 19.02050 00 07 08.49 +52 49 49.2          17.7 R ES016932
         K05S00C  C2005 09 19.02992 00 07 09.68 +52 51 22.4          17.7 R ES016932
         K05S00C  C2005 09 19.12667 00 07 20.76 +53 07 34.5          17.5 R ES016932
         K05S00C  C2005 09 19.13627 00 07 21.82 +53 09 11.0          17.7 R ES016932
         K05S00C  C2005 09 19.14227 00 07 22.48 +53 10 10.6          17.6 R ES016932
         K05S00C 3C2005 09 19.56443 00 08 15.65 +54 21 18.1          18.3 R ES016F65
         K05S00C 3C2005 09 19.56520 00 08 15.73 +54 21 25.8          18.1 R ES016F65
         K05S00C 3C2005 09 19.56602 00 08 15.84 +54 21 34.0          18.2 R ES016F65
    
    Observer details:
    118 Modra.  Observers S. Gajdos, J. Vilagi.  0.6-m f/5.5 reflector + CCD.
    673 Table Mountain Observatory, Wrightwood.  Observer J. Young.  0.6-m f/16
        Cassegrain + CCD.
    704 Lincoln Laboratory ETS, New Mexico.  Observers M. Bezpalko, L. Manguso,
        D. Torres, R. Kracke, A. Milner, H. Love.  Measurers J. Stuart, R. Sayer,
        J. Evans, J. Kommers.  1.0-m f/2.15 reflector + CCD.
    854 Sabino Canyon Observatory, Tucson.  Observer J. E. McGaha.  0.36-m f/10.0
        Schmidt-Cassegrain + CCD.
    932 John J. McCarthy Obs., New Milford.  Observer M. Robson.  0.4-m f/6.5
        Schmidt-Cassegrain + CCD.
    F65 Haleakala-Faulkes Telescope North.  Observers W. A. H. Jennings, B. Ng
        Lung Kit, A. N. D. M. Sanne, I. J. Galbraith, J. M. Fish, S. Y. Stratas,
        P. Wong, A. D. Taylor.  2.0-m Ritchey-Chretien + CCD.
    J71 Willow Bank Observatory.  Observer I. Griffin.  0.35-m Schmidt-Cassegrain
        + CCD.
    J95 Great Shefford.  Observer P. Birtwhistle.  0.40-m f/6.0 Schmidt-Cassegrain
        + CCD.
    
    Orbital elements:
    2005 SC
    Epoch 2005 Aug. 18.0 TT = JDT 2453600.5                 MPC
    M 334.89879              (2000.0)            P               Q
    n   0.29262549     Peri.  155.94275     +0.21596410     -0.97007602
    a   2.2469562      Node   281.43438     +0.87647272     +0.24268697
    e   0.6607607      Incl.    6.50018     +0.43029651     -0.00745280
    P   3.37           H   20.1           G   0.15           U   8
    Residuals in seconds of arc
    050916 704  0.3-  0.2-    050917 673  0.3-  0.3-    050918 118  0.4-  0.2-
    050916 704  1.7+  0.5-    050917 673  0.2-  0.3+    050919 932  0.3+  0.2-
    050916 704  0.5+  0.5+    050917 673  0.1-  0.5+    050919 932  0.1-  0.3+
    050916 704  0.0   0.7+    050917 673  0.4-  0.9+    050919 932  0.4+  1.0-
    050916 704  0.8+  0.2-    050917 854  0.1+  0.2+    050919 932  0.1+  0.1+
    050917 J95  0.3-  0.3-    050917 854  0.1+  0.2-    050919 932  0.1+  0.4+
    050917 J95  0.0   0.3-    050917 854  0.3-  0.3+    050919 932  0.1+  0.2-
    050917 J95  0.4-  0.2-    050918 118  0.1+  0.1+    050919 F65  0.2+  0.0
    050917 J71  1.6+  0.9+    050918 118  0.1+  0.0     050919 F65  0.1+  0.1-
    050917 J71  0.0   1.0+    050918 118  0.2-  0.4+    050919 F65  0.2+  0.1-
    050917 J71  0.6-  0.1-    050918 118  0.4-  0.5+
    
    Ephemeris:
    2005 SC                  a,e,i = 2.25, 0.66, 7                   q = 0.7623
    Date    TT    R. A. (2000) Decl.     Delta      r     Elong.  Phase     V
    2005 09 17    00 03.41   +47 41.1    0.185    1.132   129.7    43.1    18.4
    2005 09 27    01 30.51   +80 42.5    0.133    1.034   100.3    72.4    18.3
    2005 10 07    11 20.78   +55 25.9    0.148    0.943    63.6   108.3    19.9
    2005 10 17    11 37.60   +29 44.6    0.217    0.864    47.1   122.3    21.5
    2005 10 27    11 48.11   +16 04.0    0.310    0.803    44.5   119.8    21.9
    2005 11 06    12 01.11   +07 22.5    0.417    0.768    46.7   110.1    21.8
    2005 11 16    12 17.69   +00 54.7    0.528    0.765    50.0    98.1    21.7
    2005 11 26    12 37.05   -04 21.1    0.635    0.795    53.5    86.5    21.7
    2005 12 06    12 57.55   -08 47.2    0.732    0.853    57.3    76.5    21.7
    2005 12 16    13 17.66   -12 32.8    0.812    0.930    61.5    68.4    21.9
    2005 12 26    13 36.29   -15 44.2    0.873    1.020    66.3    62.0    22.1
    
    Kyle E. Smalley              (C) Copyright 2005 MPC           M.P.E.C. 2005-S16
    

    Read MPEC 2005-S15 Read MPEC 2005-S17


    MPEC number:

    Enter an MPEC number in one of the following forms:

    • 1997-B01 (the full form)
    • J97B01 (the packed version of the full form)
    • B01 (the abbreviated form)